Weather Roundup
Issued by NWS Chicago, IL

Home | Current Version | Previous Version | Graphics & Text | Print | Product List | Glossary On
Versions: 1 2 3 4 5 6 7 8 9 10 11 12 13 14 15 16 17 18 19 20 21 22 23 24 25 26 27 28 29 30 31 32 33 34 35 36 37 38 39 40 41 42 43 44 45 46 47 48 49 50
000
NZUS59 KLOT 310110
HRRLOT

CHICAGO AREA WEATHER ROUNDUP
NATIONAL WEATHER SERVICE CHICAGO/ROMEOVILLE IL
800 PM CDT WED JUL 30 2014

NOTE: "FAIR" INDICATES FEW OR NO CLOUDS BELOW 12,000 FEET WITH NO
SIGNIFICANT WEATHER AND/OR OBSTRUCTIONS TO VISIBILITY.

* THESE STATIONS ARE NOT UNDER NWS QUALITY CONTROL. THEY ALSO MAY NOT
  REPORT WEATHER SUCH AS PRECIPITATION OR FOG.

ILZ005-006-012>014-019>023-310200-
NORTHEAST ILLINOIS

CITY           SKY/WX    TMP DP  RH WIND       PRES   REMARKS
OHARE          PTCLDY    70  56  61 E6        30.01R
MIDWAY         PTCLDY    70  59  68 E7        30.01S
AURORA         CLEAR     69  61  75 W5        30.01S
LANSING*       CLEAR     66  57  72 NE6       30.02R
JOLIET*        CLEAR     74  56  54 CALM      30.02R
WAUKEGAN       CLEAR     62  55  77 SE3       30.01S
DUPAGE AIRPORT PTCLDY    73  57  57 NE6       30.00S
WHEELING       CLEAR     68  57  68 E5        30.02F
KANKAKEE*      CLEAR     71  61  72 W3        30.02S
MORRIS*        CLEAR     71  63  76 W3        30.01S
LEWIS AIRPORT* PTCLDY    71  58  64 NE3       30.01R
NORTHERLY IS     N/A     65  60  84 E2          N/A
$$

WIZ051-052-058>065-066-070>072-310200-
SOUTHEAST WISCONSIN

CITY           SKY/WX    TMP DP  RH WIND       PRES   REMARKS
MILWAUKEE      PTCLDY    65  51  60 S7        30.00F
KENOSHA*       CLEAR     64  56  75 S6        30.02S
RACINE*        CLEAR     65  52  62 S6        30.03S
BURLINGTON     CLEAR     63  55  76 CALM      30.01S
WAUKESHA       PTCLDY    66  52  59 W5        30.01F
WEST BEND      CLEAR     66  52  59 SW3       30.00S
$$

INZ001>003-010>013-019-020-310200-
NORTHWEST INDIANA

CITY           SKY/WX    TMP DP  RH WIND       PRES   REMARKS
GARY*          PTCLDY    66  61  82 NE6       30.02S
MICHIGAN CITY* NOT AVBL
RENSSELAER*    NOT AVBL
VALPARAISO     CLEAR     66  58  75 CALM      30.02S
$$

LMZ740>746-310200-
SOUTHERN LAKE MICHIGAN

STATION/POSITION TIME  SKY/WX   TEMP WIND        PRES    VSBY
                                AIR  DIR/SP/G
                 (UTC)          (F)  (DEG/KT/KT) (MB)    (MI)
HARRISON CRIB    0100            64   70/  4/  6   N/A
BURNHAM HARBOR   0100            64   80/  3/  5   N/A
CALUMET HARBOR   0100            65   30/  4/  5 1015.3S
BURNS HARBOR     NOT AVBL
MICHIGAN CITY    0100            64   30/  7/  9   N/A
$$

ABBREVIATIONS USED IN REMARKS
   TC - TEMPERATURE IN CELSIUS
  WCI - WIND CHILL INDEX
   HX - HEAT INDEX
  VSB - VISIBILITY
$$


USA.gov is the U.S. government's official web portal to all federal, state and local government web resources and services.